Ravenna, OH

3:48 PM EDT on April 24, 2017 (GMT -0400)
Ravenna

Weather History for KPOV - May, 2013

Change the Weather History Date:

Saturday, May 11, 2013

  Actual Average (KCAK) Record (KCAK)
Temperature  
Mean Temperature 52 °F -  
Max Temperature 60 °F 70 °F 88 °F (1936)
Min Temperature 43 °F 47 °F 30 °F (1913)
Degree Days  
Heating Degree Days 14    
Growing Degree Days 2 (Base 50)    
Moisture  
Dew Point 47 °F    
Average Humidity 93    
Maximum Humidity 100    
Minimum Humidity 77    
Precipitation  
Precipitation 0.11 in - - ()
Sea Level Pressure  
Sea Level Pressure 29.83 in    
Wind  
Wind Speed 7 mph (West)    
Max Wind Speed 22 mph    
Max Gust Speed 31 mph    
Visibility 7 miles    
Events Rain    
Averages and records for this station are not official NWS values.
T = Trace of Precipitation, MM = Missing Value Source: NWS Daily Summary

Daily Weather History Graph

Daily Weather History Graph

Search for Another Location

Airport or City:

Trip Planner

Search our weather history database for the weather conditions in past years. The results will help you decide how hot, cold, wet, or windy it might be!

Date:

Astronomy

May. 11, 2013 Rise Set
Actual Time 6:10 AM EDT 8:32 PM EDT
Civil Twilight 5:39 AM EDT 9:03 PM EDT
Nautical Twilight 5:01 AM EDT 9:42 PM EDT
Astronomical Twilight 4:18 AM EDT 10:25 PM EDT
Moon 7:16 AM EDT (5/11) 10:12 PM EDT (5/11)
Length of Visible Light 15h 24m
Length of Day
14h 22m
Waxing Crescent, 3% of the Moon is Illuminated
May 11
Waxing Crescent
May 18
First Quarter
May 25
Full
May 31
Last Quarter
Jun 8
New

Hourly Weather History & Observations

Time (EDT) Temp. Windchill Dew Point Humidity Pressure Visibility Wind Dir Wind Speed Gust Speed Precip Events Conditions
12:17 AM 60.4 °F - 60.6 °F 100% 29.78 in 10.0 mi SW 4.6 mph - N/A   Overcast
12:37 AM 59.4 °F - 59.5 °F 100% 29.79 in 7.0 mi WNW 11.5 mph 16.1 mph 0.03 in Rain Heavy Rain
12:56 AM 54.9 °F - 55.0 °F 100% 29.79 in 7.0 mi NW 5.8 mph - 0.06 in   Overcast
1:17 AM 53.1 °F - 53.4 °F 100% 29.79 in 7.0 mi WNW 8.1 mph - N/A   Light Drizzle
1:37 AM 51.8 °F - 51.8 °F 100% 29.80 in 4.0 mi NW 6.9 mph - N/A   Overcast
1:57 AM 51.1 °F - 51.3 °F 100% 29.80 in 3.0 mi WNW 5.8 mph - N/A Rain Light Rain
2:17 AM 49.8 °F - 50.0 °F 100% 29.81 in 5.0 mi WNW 9.2 mph - N/A   Overcast
2:36 AM 48.4 °F - 48.6 °F 100% 29.81 in 3.0 mi WNW 9.2 mph - N/A   Overcast
2:57 AM 47.5 °F - 47.7 °F 100% 29.81 in 2.0 mi WNW 10.4 mph - N/A   Overcast
3:17 AM 46.8 °F - 46.9 °F 100% 29.81 in 1.8 mi WNW 6.9 mph - N/A   Overcast
3:36 AM 46.4 °F 42.9 °F 46.4 °F 100% 29.81 in 1.2 mi WNW 6.9 mph - N/A   Overcast
3:57 AM 46.4 °F 43.5 °F 46.4 °F 100% 29.82 in 0.8 mi WNW 5.8 mph - N/A   Overcast
4:17 AM 45.7 °F 41.0 °F 45.9 °F 100% 29.82 in 1.0 mi WNW 9.2 mph - N/A   Overcast
4:37 AM 45.5 °F 42.5 °F 45.7 °F 100% 29.82 in 0.8 mi WNW 5.8 mph - N/A   Overcast
4:57 AM 45.1 °F 41.4 °F 45.3 °F 100% 29.83 in 1.0 mi WNW 6.9 mph - N/A   Overcast
5:17 AM 45.0 °F 41.8 °F 45.1 °F 100% 29.83 in 1.8 mi WNW 5.8 mph - N/A   Overcast
5:37 AM 44.6 °F 40.7 °F 44.8 °F 100% 29.83 in 1.5 mi WNW 6.9 mph - N/A   Overcast
5:56 AM 44.4 °F 40.0 °F 44.6 °F 100% 29.83 in 2.0 mi WNW 8.1 mph - N/A   Overcast
6:17 AM 44.1 °F 40.8 °F 44.2 °F 100% 29.84 in 2.0 mi WNW 5.8 mph - N/A   Overcast
6:37 AM 44.1 °F 41.5 °F 44.2 °F 100% 29.84 in 2.0 mi WNW 4.6 mph - N/A   Overcast
6:56 AM 43.9 °F 40.5 °F 44.1 °F 100% 29.84 in 1.0 mi WNW 5.8 mph - N/A   Overcast
7:17 AM 44.1 °F 42.5 °F 44.4 °F 100% 29.84 in 0.8 mi NW 3.5 mph - N/A   Overcast
7:37 AM 44.1 °F 41.5 °F 44.2 °F 100% 29.85 in 2.0 mi WNW 4.6 mph - N/A   Overcast
7:57 AM 43.9 °F 41.3 °F 44.1 °F 100% 29.85 in 2.5 mi WNW 4.6 mph - N/A   Overcast
8:17 AM 43.7 °F 39.7 °F 43.9 °F 100% 29.85 in 5.0 mi WNW 6.9 mph - N/A   Overcast
8:37 AM 44.1 °F 40.1 °F 44.2 °F 100% 29.84 in 3.0 mi WNW 6.9 mph - N/A   Overcast
8:57 AM 44.2 °F 41.8 °F 44.4 °F 100% 29.84 in 7.0 mi WNW 4.6 mph - N/A   Overcast
9:17 AM 44.1 °F 39.5 °F 44.4 °F 100% 29.85 in 7.0 mi West 8.1 mph - N/A   Overcast
9:37 AM 44.2 °F 40.3 °F 44.6 °F 100% 29.85 in 7.0 mi WNW 6.9 mph - N/A   Overcast
9:56 AM 44.8 °F 40.4 °F 45.0 °F 100% 29.85 in 7.0 mi WNW 8.1 mph - N/A   Overcast
10:17 AM 44.8 °F 40.4 °F 45.0 °F 100% 29.85 in 7.0 mi WNW 8.1 mph - N/A   Overcast
10:37 AM 45.0 °F 42.6 °F 45.3 °F 100% 29.85 in 5.0 mi WNW 4.6 mph - N/A   Overcast
10:56 AM - - - N/A% 29.85 in 7.0 mi WNW 4.6 mph - N/A   Overcast
11:17 AM 45.5 °F 40.8 °F 45.7 °F 100% 29.85 in 7.0 mi West 9.2 mph - N/A   Overcast
11:37 AM 45.7 °F 43.4 °F 45.9 °F 100% 29.85 in 7.0 mi WNW 4.6 mph - N/A   Overcast
11:57 AM 45.9 °F 43.6 °F 46.0 °F 100% 29.85 in 5.0 mi West 4.6 mph - N/A   Overcast
12:17 PM 46.4 °F 42.9 °F 46.6 °F 100% 29.85 in 7.0 mi West 6.9 mph - N/A   Overcast
12:37 PM - - - N/A% 29.85 in 7.0 mi WSW 6.9 mph - N/A   Overcast
12:57 PM 47.5 °F - 47.7 °F 100% 29.85 in 7.0 mi West 5.8 mph - N/A   Overcast
1:17 PM 48.2 °F - 47.7 °F 98% 29.85 in 10.0 mi West 6.9 mph - N/A   Overcast
1:37 PM 48.2 °F - 47.7 °F 98% 29.85 in 10.0 mi WNW 5.8 mph - N/A   Overcast
1:56 PM 48.6 °F - 48.4 °F 99% 29.85 in 10.0 mi West 4.6 mph - N/A   Overcast
2:17 PM 49.8 °F - 48.4 °F 95% 29.85 in 10.0 mi SW 5.8 mph - N/A   Overcast
2:37 PM 50.0 °F - 46.0 °F 86% 29.85 in 10.0 mi West 6.9 mph - N/A   Overcast
2:56 PM 49.3 °F - 46.0 °F 89% 29.84 in 10.0 mi WSW 5.8 mph - N/A   Overcast
3:17 PM 49.8 °F - 46.6 °F 89% 29.85 in 10.0 mi SW 3.5 mph - N/A   Overcast
3:37 PM 49.5 °F - 46.4 °F 89% 29.83 in 10.0 mi WSW 5.8 mph - N/A   Overcast
3:57 PM 50.2 °F - 47.1 °F 89% 29.84 in 7.0 mi West 8.1 mph - N/A   Overcast
4:17 PM 50.2 °F - 47.1 °F 89% 29.83 in 7.0 mi WSW 5.8 mph - N/A   Overcast
4:37 PM 50.5 °F - 46.9 °F 87% 29.83 in 7.0 mi West 4.6 mph - N/A   Overcast
4:57 PM 51.1 °F - 46.9 °F 86% 29.83 in 7.0 mi SW 6.9 mph - N/A   Overcast
5:17 PM 51.8 °F - 46.2 °F 81% 29.82 in 10.0 mi SW 6.9 mph - N/A   Overcast
5:37 PM 52.2 °F - 46.9 °F 82% 29.82 in 10.0 mi SW 3.5 mph - N/A   Overcast
5:56 PM 52.0 °F - 46.4 °F 81% 29.82 in 10.0 mi WSW 8.1 mph - N/A   Overcast
6:17 PM 52.2 °F - 46.6 °F 81% 29.82 in 10.0 mi West 5.8 mph - N/A   Overcast
6:37 PM 52.2 °F - 46.6 °F 81% 29.82 in 10.0 mi West 5.8 mph - N/A   Overcast
6:57 PM 52.5 °F - 46.4 °F 80% 29.82 in 10.0 mi WSW 5.8 mph 16.1 mph N/A   Overcast
7:17 PM 52.9 °F - 46.2 °F 78% 29.82 in 10.0 mi WSW 6.9 mph - N/A   Mostly Cloudy
7:37 PM 53.1 °F - 45.9 °F 77% 29.82 in 10.0 mi WSW 4.6 mph - N/A   Scattered Clouds
7:57 PM 52.7 °F - 45.7 °F 77% 29.82 in 10.0 mi WSW 4.6 mph - N/A   Scattered Clouds
8:17 PM 51.8 °F - 45.7 °F 80% 29.82 in 10.0 mi SW 3.5 mph - N/A   Mostly Cloudy
8:37 PM 50.9 °F - 45.7 °F 82% 29.82 in 10.0 mi WSW 3.5 mph - N/A   Scattered Clouds
8:57 PM 51.1 °F - 45.9 °F 82% 29.81 in 10.0 mi Calm Calm - N/A   Overcast
9:17 PM 51.6 °F - 46.2 °F 82% 29.81 in 10.0 mi SW 3.5 mph - N/A   Overcast
9:37 PM 52.2 °F - 46.2 °F 80% 29.82 in 10.0 mi WSW 5.8 mph 17.3 mph N/A   Overcast
9:56 PM 52.2 °F - 46.2 °F 80% 29.81 in 10.0 mi WSW 8.1 mph 16.1 mph N/A   Overcast
10:17 PM 51.8 °F - 46.8 °F 83% 29.81 in 10.0 mi SW 4.6 mph - N/A   Overcast
10:37 PM 51.6 °F - 46.9 °F 84% 29.82 in 10.0 mi SW 4.6 mph - N/A   Overcast
10:56 PM 51.8 °F - 47.3 °F 85% 29.82 in 10.0 mi WSW 6.9 mph - N/A Rain Rain
11:17 PM 46.0 °F 38.0 °F 42.4 °F 87% 29.85 in 5.0 mi West 21.9 mph 31.1 mph 0.04 in Rain Rain
11:37 PM 45.3 °F 38.7 °F 44.6 °F 97% 29.85 in 10.0 mi West 15.0 mph 18.4 mph 0.05 in   Light Drizzle
11:57 PM - - - N/A% 29.85 in 10.0 mi West 11.5 mph - 0.05 in   Overcast